Погода в Андуани

Мадагаскар     13°23′59″S   48°16′59″E
темп.,
°C
ветер,
м/с
пор.,
м/с
влажн.,
%
обл.,
%
осадки,
мм/ч
давл.,
гПа
погр.,
м
10 августа, ср
ср1000:00+24юв2275100 0.8 1017256
03:00+24в337295 0.8 1016429
06:00+22юв33672 0.0 1017232
09:00+22юв33573 0.0 1018209
12:00+23ссз33631 0.0 1016168
15:00+24з87752 0.0 1014335
18:00+25з66750 0.0 1015457
21:00+25юз557454 1.3 1017232
11 августа, чт
чт1100:00+24юв117155 0.8 1017165
03:00+23ююв33730 1.1 1016273
06:00+22юв45613 0.0 1017229
09:00+22юв33556 0.0 1018204
12:00+24сз33556 0.0 1016174
15:00+25з88732 0.0 1015428
18:00+25з557193 0.0 1016483
21:00+25зсз226734 1.2 1017135
12 августа, пт
пт1200:00+24ююв11692 0.2 1017300
03:00+23юв32763 0.3 1016250
06:00+21юв33693 0.2 1017182
09:00+22вюв2265100 0.2 1018178
12:00+23сз33646 0.0 1017151
15:00+25з777286 0.0 1014369
18:00+25зсз667025 0.0 1015476
21:00+25зюз446836 0.0 1017554
13 августа, сб
сб1300:00+23юв32767 0.1 1016222
03:00+23юв227791 0.2 1015257
06:00+22вюв337516 0.0 1016267
09:00+23вюв226136 0.0 1018207
12:00+23ссз336774 0.0 1016188
15:00+25зсз657264 0.0 1014313
18:00+25зсз4469100 0.0 1015333
21:00+25зюз1165100 0.0 1016308
14 августа, вс
вс1400:00+24ююв227234 0.0 1016271
03:00+23юв327729 0.0 1014251
06:00+22вюв337694 0.0 1015248
09:00+23в116797 0.0 1017201
12:00+23ссз34705 0.0 1015248
15:00+24з77755 0.0 1013376
18:00+25зюз66733 0.0 1014422
21:00+25сз23735 0.0 1016451